Flag for Brazil Weather past 2 weeks in Campinas, São Paulo, Brazil

Now
81 °F

Partly sunny.


Feels Like: 83 °F
Forecast: 67 / 78 °F
Wind: 8 mph from Southwest

Location: Campinas Aeroporto

Current Time: Mar 29, 2015 at 5:14:45 PM

Latest Report: Mar 29, 2015 at 4:00 PM


Visibility: N/A

Pressure: 29.98 "Hg

Humidity: 66%

Dew point: 68 °F

Location of CampinasLocation

Historic Weather in Campinas — Graph

°F

Campinas temperature yesterday

Maximum temperature yesterday: 86 °F (at 2:00 PM)
Minimum temperature yesterday: 70 °F (at 2:00 AM)
Average temperature yesterday: 77 °F

Past Weeks' High & Low Weather Summary

 TemperatureHumidityPressure
High88 °F (Mar 27, 4:00 PM)100% (Mar 15, 2:00 AM)30.18 "Hg (Mar 15, 2:00 AM)
Low39 °F (Mar 16, 6:00 PM)35% (Mar 27, 4:00 PM)29.89 "Hg (Mar 21, 4:00 PM)
Average72 °F79%30.05 "Hg
* Reported Mar 14 4:00 PM — Mar 29 4:00 PM, Campinas, Weather by CustomWeather, © 2015

Note: Actual official high and low records may vary slightly from our data, if they occured in-between our weather recording intervals... More about our weather records

Advertising

Campinas weather history for previous 24 hours

 ConditionsComfort  
Time TempWeatherWind HumidityBarometerVisibility
4:00 PM
Sun, Mar 29
81 °FPartly sunny.8 mph66%29.98 "HgN/A
3:00 PM81 °FScattered clouds.8 mph66%29.98 "HgN/A
2:00 PM81 °FScattered clouds.5 mph66%30.01 "HgN/A
1:00 PM79 °FScattered clouds.No wind74%30.04 "HgN/A
12:00 PM77 °FScattered clouds.No wind79%30.07 "Hg6 mi
11:00 AM72 °FFog.5 mph94%30.09 "Hg2 mi
10:00 AM70 °FRain. Broken clouds.9 mph94%30.12 "Hg1 mi
9:00 AM73 °FLight rain. Broken clouds.3 mph78%30.09 "Hg5 mi
8:00 AM72 °FClear.5 mph83%30.07 "Hg5 mi
7:00 AM70 °FClear.5 mph83%30.07 "Hg4 mi
6:00 AM70 °FSunny.7 mph83%30.04 "Hg10 mi
5:00 AM70 °FClear.7 mph83%30.01 "Hg10 mi
4:00 AM70 °FClear.8 mph83%30.01 "Hg10 mi
3:00 AM70 °FClear.8 mph83%30.01 "Hg10 mi
2:00 AM70 °FClear.12 mph83%30.04 "Hg10 mi
1:00 AM72 °FClear.15 mph78%30.04 "Hg10 mi
12:00 AM72 °FClear.14 mph78%30.07 "Hg5 mi
11:00 PM
Sat, Mar 28
73 °FClear.16 mph78%30.07 "Hg5 mi
10:00 PM73 °FClear.16 mph74%30.09 "Hg4 mi
9:00 PM75 °FPassing clouds.10 mph74%30.09 "HgN/A
8:00 PM75 °FPassing clouds.12 mph69%30.07 "HgN/A
7:00 PM79 °FScattered showers. Partly cloudy.8 mph61%N/AN/A
6:00 PM82 °FPartly cloudy.8 mph55%30.04 "Hg5 mi
5:00 PM84 °FScattered clouds.6 mph48%30.04 "Hg5 mi
Weather by CustomWeather, © 2015

See weather overviewHow to use our weather pages